Regional Weather Roundup
Issued by NWS

Home | Current Version | Previous Version | Graphics & Text | Print | Product List | Glossary On
Versions: 1 2 3 4 5 6 7 8 9 10 11 12 13 14 15 16 17 18 19 20 21 22 23 24 25 26 27
000
ASUS45 KBOI 242310
RWRID

IDAHO REGIONAL WEATHER ROUNDUP
NATIONAL WEATHER SERVICE BOISE ID
500 PM MDT MON JUL 24 2017

NOTE: "FAIR" INDICATES FEW OR NO CLOUDS BELOW 12000 FEET
WITH NO SIGNIFICANT WEATHER AND/OR OBSTRUCTIONS TO VISIBILITY

IDZ012-014-250000-
SOUTHWEST IDAHO


CITY           SKY/WX    TMP DP  RH WIND       PRES   REMARKS
BOISE          CLOUDY    97  45  16 NW6       29.83F HX  93
CALDWELL       CLOUDY    93  56  28 W5        29.83F HX  91
MOUNTAIN HOME  MOSUNNY   99  44  15 SW12      29.84F HX  94
$$

IDZ016-017-250000-
SOUTHCENTRAL IDAHO


CITY           SKY/WX    TMP DP  RH WIND       PRES   REMARKS
BURLEY         CLOUDY    88  45  22 S15       29.94F
JEROME         CLOUDY    95  32  11 E7        29.93F HX  90
TWIN FALLS     PTSUNNY   90  49  24 E12       29.93F
$$

IDZ019>023-250000-
SOUTHEAST IDAHO


CITY           SKY/WX    TMP DP  RH WIND       PRES   REMARKS
IDAHO FALLS    MOSUNNY   93  34  12 SW8       29.98F
POCATELLO      PTSUNNY   93  28  10 S8        29.97F
REXBURG        MOSUNNY   88  42  20 N9        30.01S
$$

IDZ006-010-011-018-031-032-250000-
CENTRAL IDAHO MOUNTAINS


CITY           SKY/WX    TMP DP  RH WIND       PRES   REMARKS
MCCALL         CLOUDY    88  37  16 SW9G20    30.00F
HAILEY         MOSUNNY   86  46  25 W6        30.05F
STANLEY          N/A     83  35  18 NW10      30.15F
SALMON         NOT AVBL
CHALLIS        CLOUDY    86  46  24 NW7       29.99F
$$

IDZ002-004-006-007-026-250000-
NORTHERN IDAHO


CITY           SKY/WX    TMP DP  RH WIND       PRES   REMARKS
LEWISTON       SUNNY     92  31  11 W9        29.87F
LOWELL           N/A     95  46  18 VRB5      29.82F HX  91
COEUR D`ALENE  SUNNY     85  36  17 SW8       29.93F
MULLAN PASS    SUNNY     74  32  21 VRB5      30.11F
$$




USA.gov is the U.S. government's official web portal to all federal, state and local government web resources and services.